Torna al catalogo

CZ-6A DEB

AttivoPO
NORAD 60974·DEBRIS·🇨🇳 China

Lanciato Aug 6, 2024 da Taiyuan Satellite Launch Center

Loading…

Prossimi Passaggi (prossime 24 ore)

TLE

AggiornatoSource: Space-Track

Epoca: Sep 14, 2026, 08:49 UTC

1 60974U 24140LZ  26257.36746166  .00001072  00000-0  30472-3 0  9997
2 60974  88.7366 236.7979 0072359  41.5411 319.1258 14.43109212109153

Traccia CZ-6A DEB in tempo reale con AllMySat

Download on the App Store